Regional Weather Roundup
Issued by NWS Green Bay, WI

Home | Current Version | Previous Version | Graphics & Text | Print | Product List | Glossary Off
Versions: 1 2 3 4 5 6 7 8 9 10 11 12 13 14 15 16 17 18 19 20 21 22 23 24 25 26 27 28 29 30 31 32 33 34 35 36 37 38 39 40 41 42 43 44 45 46 47 48 49 50

724
ASUS43 KGRB 081300
RWRGRB

NORTH-CENTRAL AND NORTHEAST WISCONSIN REGIONAL WEATHER ROUNDUP
NATIONAL WEATHER SERVICE GREEN BAY WI
700 AM CST MON FEB 08 2016

WIZ005-009-010>012-018-019-081400-
NORTH CENTRAL WISCONSIN

CITY           SKY/WX    TMP DP  RH WIND       PRES   REMARKS
IRONWOOD       CLOUDY    19  18  93 NW10      29.67R WCI   8
MANITOWISH WTR NOT AVBL
ARBOR VITAE    NOT AVBL
EAGLE RIVER    NOT AVBL
LAND O LAKES   NOT AVBL
RHINELANDER    FLURRIES  23  18  81 N8        29.60R
PHILLIPS       NOT AVBL
ANTIGO         NOT AVBL
TOMAHAWK       NOT AVBL
MERRILL        NOT AVBL
$$

WIZ013-073-081400-
NORTHEAST WISCONSIN

CITY           SKY/WX    TMP DP  RH WIND       PRES   REMARKS
IRON MOUNTAIN  LGT SNOW  30  28  92 NW6       29.55R VSB 3/4
MARINETTE      CLOUDY    32  27  80 CALM      29.57S
$$

WIZ017-030-035>037-045-081400-
CENTRAL WISCONSIN

CITY           SKY/WX    TMP DP  RH WIND       PRES   REMARKS
MEDFORD        NOT AVBL
WAUSAU         CLOUDY    24  18  77 W8        29.60R
MOSINEE        CLOUDY    21  19  93 NW13G20   29.62R WCI   9
MARSHFIELD     CLOUDY    18  12  77 NW15      29.63R WCI   4
WISC RAPIDS    CLOUDY    20  12  71 NW14      29.66R WCI   7
STEVENS POINT  NOT AVBL
WAUPACA        NOT AVBL
SHAWANO        NOT AVBL
CLINTONVILLE   NOT AVBL
WAUTOMA        NOT AVBL
$$

WIZ038-039-048-051-081400-
FOX VALLEY

CITY           SKY/WX    TMP DP  RH WIND       PRES   REMARKS
NWS GREEN BAY  CLOUDY    31  26  82 W12       29.58R
APPLETON       CLOUDY    28  21  74 W12       29.57R
OSHKOSH        CLOUDY    27  20  75 W14       29.60R
FOND DU LAC    CLOUDY    28  22  78 NW7       29.61R
$$

WIZ022-050-052-081400-
EAST CENTRAL WISCONSIN

CITY           SKY/WX    TMP DP  RH WIND       PRES   REMARKS
EPHRAIM        NOT AVBL
STURGEON BAY   CLOUDY    32  27  80 W3        29.59R
MANITOWOC      LGT RAIN  34  30  86 W8        29.58R
SHEBOYGAN      CLOUDY    30  25  81 NW12      29.58R
$$

LMZ563-521-522-541>543-081400-
LAKESHORE

STATION/POSITION TIME  TEMP    WIND        PRES    VSBY  WAVE
                       AIR SEA DIR/SP/G                  HT/PER
                 (UTC) (F)     (DEG/KT/KT) (MB)    (MI)  (FT/S)
SHEBOYGAN LKSHOR 1200   33     280/  8/ 10 1002.1R
KEWAUNEE LKSHORE 1200   32     300/  4/  6 1000.5R
NORTHPORT PIER   1200   33      CALM  /  1 1001.7R
CHAMBERS ISLAND  1200   33     230/  2/  3 1001.7R
MENOMINEE LKSHOR 1200   33        CALM     1000.3R
$$




USA.gov is the U.S. government's official web portal to all federal, state and local government web resources and services.